Location: Evergreen Manor
(41.4083°N, 81.4939°W)
Time: 02:34:06
(UTC+00:00)

PAYLOAD B - Pass Details

Date: 11 December 2019
Orbit: 850 x 871 km, 99.1° (Epoch: 22 January)

Event Time Altitude Azimuth Distance (km) Brightness Sun altitude
Rises 10:42:01 0° 16° (NNE) 3,429 7.4 -21.7°
Reaches altitude 10° 10:44:25 10° 18° (NNE) 2,491 6.7 -21.2°
Maximum altitude 10:49:56 72° 103° (ESE) 901 4.4 -20.2°
Drops below altitude 10° 10:55:27 10° 188° (S) 2,488 6.7 -19.2°
Sets 10:57:49 0° 190° (S) 3,423 7.4 -18.8°
